| time (UTC) | temp F | wind direction | speed MPH | gust MPH | rain 1hr in | rain 24hr in | rain mn in | humidity % | barometer mb |
| 20260902032703 | 71 | 0 | 0.0 | 0.0 | 0.00 | 0.00 | 0.00 | 57 | 1021.4 |
| 20260902031803 | 72 | 0 | 0.0 | 0.0 | 0.00 | 0.00 | 0.00 | 56 | 1021.4 |
| 20260902030903 | 72 | 0 | 0.0 | 0.0 | 0.00 | 0.00 | 0.00 | 55 | 1021.3 |
| 20260902030003 | 72 | 0 | 0.0 | 0.0 | 0.00 | 0.00 | 0.00 | 54 | 1021.2 |
| 20260902025403 | 72 | 0 | 0.0 | 0.0 | 0.00 | 0.00 | 0.00 | 54 | 1021.1 |
| 20260902024503 | 72 | 0 | 0.0 | 0.0 | 0.00 | 0.00 | 0.00 | 54 | 1020.9 |
| 20260902023819 | 72 | 140 | 0.0 | 2.0 | 0.00 | 0.00 | 0.00 | 53 | 1020.6 |
| 20260902022703 | 72 | 126 | 1.0 | 4.0 | 0.00 | 0.00 | 0.00 | 51 | 1020.4 |
| 20260902021803 | 73 | 120 | 1.0 | 4.0 | 0.00 | 0.00 | 0.00 | 50 | 1020.1 |
| 20260902020903 | 73 | 117 | 1.0 | 3.0 | 0.00 | 0.00 | 0.00 | 51 | 1020.0 |
| 20260902020003 | 74 | 128 | 0.0 | 2.0 | 0.00 | 0.00 | 0.00 | 49 | 1019.8 |
| 20260902015403 | 74 | 145 | 0.0 | 2.0 | 0.00 | 0.00 | 0.00 | 49 | 1019.7 |
| 20260902014503 | 75 | 163 | 0.0 | 3.0 | 0.00 | 0.00 | 0.00 | 48 | 1019.6 |
| 20260902013603 | 76 | 174 | 0.0 | 3.0 | 0.00 | 0.00 | 0.00 | 46 | 1019.7 |
| 20260902012918 | 76 | 161 | 1.0 | 3.0 | 0.00 | 0.00 | 0.00 | 45 | 1019.7 |
| 20260902011803 | 77 | 122 | 1.0 | 3.0 | 0.00 | 0.00 | 0.00 | 46 | 1019.7 |
| 20260902011117 | 78 | 147 | 2.0 | 6.0 | 0.00 | 0.00 | 0.00 | 44 | 1019.7 |
| 20260902010003 | 79 | 152 | 2.0 | 6.0 | 0.00 | 0.00 | 0.00 | 44 | 1019.6 |
| 20260902005403 | 79 | 134 | 2.0 | 6.0 | 0.00 | 0.00 | 0.00 | 43 | 1019.7 |
| 20260902004503 | 80 | 110 | 2.0 | 5.0 | 0.00 | 0.00 | 0.00 | 43 | 1019.6 |
| 20260902003603 | 80 | 120 | 2.0 | 8.0 | 0.00 | 0.00 | 0.00 | 40 | 1019.4 |
| 20260902002703 | 81 | 114 | 1.0 | 3.0 | 0.00 | 0.00 | 0.00 | 37 | 1019.5 |
| 20260902001803 | 82 | 129 | 1.0 | 5.0 | 0.00 | 0.00 | 0.00 | 37 | 1019.2 |
| 20260902000903 | 82 | 130 | 1.0 | 4.0 | 0.00 | 0.00 | 0.00 | 34 | 1019.2 |
| 20260902000003 | 83 | 116 | 1.0 | 4.0 | 0.00 | 0.00 | 0.00 | 34 | 1019.2 |
| 20260901235403 | 83 | 113 | 1.0 | 4.0 | 0.00 | 0.00 | 0.00 | 35 | 1019.2 |
| 20260901234503 | 83 | 124 | 1.0 | 3.0 | 0.00 | 0.00 | 0.00 | 34 | 1019.3 |
| 20260901233603 | 83 | 126 | 1.0 | 4.0 | 0.00 | 0.00 | 0.00 | 34 | 1019.3 |
| 20260901232703 | 84 | 117 | 1.0 | 4.0 | 0.00 | 0.00 | 0.00 | 33 | 1019.2 |
| 20260901232016 | 84 | 163 | 1.0 | 4.0 | 0.00 | 0.00 | 0.00 | 32 | 1019.2 |
| 20260901230903 | 85 | 123 | 1.0 | 4.0 | 0.00 | 0.00 | 0.00 | 32 | 1019.2 |
| 20260901230003 | 85 | 117 | 1.0 | 4.0 | 0.00 | 0.00 | 0.00 | 29 | 1019.3 |
| 20260901225403 | 86 | 140 | 1.0 | 4.0 | 0.00 | 0.00 | 0.00 | 30 | 1019.2 |
| 20260901224503 | 86 | 113 | 1.0 | 5.0 | 0.00 | 0.00 | 0.00 | 28 | 1019.2 |
| 20260901223603 | 85 | 117 | 1.0 | 4.0 | 0.00 | 0.00 | 0.00 | 26 | 1019.4 |
| 20260901222703 | 85 | 192 | 1.0 | 4.0 | 0.00 | 0.00 | 0.00 | 31 | 1019.4 |
| 20260901221803 | 85 | 124 | 1.0 | 3.0 | 0.00 | 0.00 | 0.00 | 31 | 1019.4 |
| 20260901220903 | 85 | 137 | 1.0 | 4.0 | 0.00 | 0.00 | 0.00 | 26 | 1019.6 |
| 20260901220003 | 85 | 105 | 1.0 | 4.0 | 0.00 | 0.00 | 0.00 | 27 | 1019.5 |
| 20260901215403 | 85 | 118 | 1.0 | 2.0 | 0.00 | 0.00 | 0.00 | 28 | 1019.7 |
| 20260901214503 | 86 | 135 | 1.0 | 3.0 | 0.00 | 0.00 | 0.00 | 29 | 1019.7 |
| 20260901213817 | 86 | 125 | 1.0 | 6.0 | 0.00 | 0.00 | 0.00 | 28 | 1019.7 |
| 20260901212703 | 85 | 128 | 1.0 | 6.0 | 0.00 | 0.00 | 0.00 | 29 | 1019.8 |
| 20260901212016 | 85 | 138 | 1.0 | 4.0 | 0.00 | 0.00 | 0.00 | 28 | 1019.8 |
| 20260901211119 | 85 | 97 | 1.0 | 4.0 | 0.00 | 0.00 | 0.00 | 29 | 1020.0 |
| 20260901210003 | 86 | 228 | 0.0 | 2.0 | 0.00 | 0.00 | 0.00 | 28 | 1020.1 |
| 20260901205403 | 86 | 0 | 0.0 | 1.0 | 0.00 | 0.00 | 0.00 | 33 | 1020.2 |
| 20260901204503 | 86 | 155 | 1.0 | 7.0 | 0.00 | 0.00 | 0.00 | 31 | 1020.3 |
| 20260901203817 | 86 | 161 | 1.0 | 7.0 | 0.00 | 0.00 | 0.00 | 29 | 1020.4 |
| 20260901202703 | 86 | 150 | 1.0 | 4.0 | 0.00 | 0.00 | 0.00 | 34 | 1020.6 |
| 20260901201803 | 86 | 101 | 1.0 | 4.0 | 0.00 | 0.00 | 0.00 | 31 | 1020.7 |
| 20260901201119 | 86 | 83 | 1.0 | 3.0 | 0.00 | 0.00 | 0.00 | 33 | 1020.8 |
| 20260901200218 | 86 | 88 | 1.0 | 3.0 | 0.00 | 0.00 | 0.00 | 32 | 1020.8 |
| 20260901195403 | 85 | 81 | 2.0 | 6.0 | 0.00 | 0.00 | 0.00 | 34 | 1021.1 |
| 20260901194503 | 85 | 121 | 1.0 | 2.0 | 0.00 | 0.00 | 0.00 | 37 | 1021.3 |
| 20260901193603 | 85 | 105 | 1.0 | 4.0 | 0.00 | 0.00 | 0.00 | 41 | 1021.3 |
| 20260901192916 | 85 | 107 | 1.0 | 4.0 | 0.00 | 0.00 | 0.00 | 38 | 1021.5 |
| 20260901192019 | 85 | 134 | 1.0 | 4.0 | 0.00 | 0.00 | 0.00 | 41 | 1021.7 |
| 20260901191118 | 84 | 132 | 1.0 | 4.0 | 0.00 | 0.00 | 0.00 | 39 | 1021.6 |
| 20260901190003 | 84 | 109 | 0.0 | 3.0 | 0.00 | 0.00 | 0.00 | 42 | 1021.7 |
| 20260901185617 | 84 | 116 | 1.0 | 3.0 | 0.00 | 0.00 | 0.00 | 40 | 1021.8 |
| 20260901184503 | 83 | 78 | 1.0 | 5.0 | 0.00 | 0.00 | 0.00 | 42 | 1021.9 |
| 20260901183603 | 82 | 85 | 1.0 | 3.0 | 0.00 | 0.00 | 0.00 | 44 | 1022.0 |
| 20260901182703 | 82 | 121 | 1.0 | 6.0 | 0.00 | 0.00 | 0.00 | 45 | 1022.1 |
| 20260901181803 | 81 | 91 | 1.0 | 3.0 | 0.00 | 0.00 | 0.00 | 44 | 1021.9 |
| 20260901180903 | 80 | 85 | 2.0 | 4.0 | 0.00 | 0.00 | 0.00 | 49 | 1022.2 |
| 20260901180003 | 79 | 66 | 1.0 | 4.0 | 0.00 | 0.00 | 0.00 | 52 | 1022.3 |
| 20260901175403 | 77 | 80 | 1.0 | 2.0 | 0.00 | 0.00 | 0.00 | 52 | 1022.4 |
| 20260901174503 | 75 | 75 | 1.0 | 2.0 | 0.00 | 0.00 | 0.00 | 62 | 1022.6 |
| 20260901173603 | 72 | 84 | 1.0 | 3.0 | 0.00 | 0.00 | 0.00 | 62 | 1022.9 |
| 20260901172919 | 71 | 79 | 1.0 | 3.0 | 0.00 | 0.00 | 0.00 | 66 | 1023.1 |
| 20260901171803 | 69 | 51 | 1.0 | 2.0 | 0.00 | 0.00 | 0.00 | 71 | 1023.3 |
| 20260901170903 | 69 | 71 | 1.0 | 3.0 | 0.00 | 0.00 | 0.00 | 72 | 1023.5 |
| 20260901170003 | 68 | 302 | 1.0 | 4.0 | 0.00 | 0.00 | 0.00 | 74 | 1023.5 |
| 20260901165616 | 67 | 290 | 0.0 | 4.0 | 0.00 | 0.00 | 0.00 | 75 | 1023.5 |
| 20260901164503 | 66 | 55 | 0.0 | 1.0 | 0.00 | 0.00 | 0.00 | 75 | 1023.6 |
| 20260901163603 | 65 | 55 | 0.0 | 1.0 | 0.00 | 0.00 | 0.00 | 79 | 1023.6 |
| 20260901162703 | 65 | 67 | 0.0 | 3.0 | 0.00 | 0.00 | 0.00 | 80 | 1023.5 |
| 20260901162018 | 64 | 80 | 0.0 | 2.0 | 0.00 | 0.00 | 0.00 | 82 | 1023.7 |
| 20260901161117 | 64 | 71 | 0.0 | 3.0 | 0.00 | 0.00 | 0.00 | 82 | 1023.6 |
| 20260901160216 | 63 | 0 | 0.0 | 0.0 | 0.00 | 0.00 | 0.00 | 84 | 1023.5 |
| 20260901155403 | 63 | 0 | 0.0 | 0.0 | 0.00 | 0.00 | 0.00 | 84 | 1023.3 |
| 20260901154503 | 62 | 0 | 0.0 | 0.0 | 0.00 | 0.00 | 0.00 | 85 | 1023.2 |
| 20260901153603 | 62 | 0 | 0.0 | 0.0 | 0.00 | 0.00 | 0.00 | 86 | 1023.4 |
| 20260901152703 | 62 | 0 | 0.0 | 0.0 | 0.00 | 0.00 | 0.00 | 86 | 1023.5 |
| 20260901151803 | 61 | 0 | 0.0 | 0.0 | 0.00 | 0.00 | 0.00 | 86 | 1023.5 |
| 20260901150903 | 61 | 0 | 0.0 | 0.0 | 0.00 | 0.00 | 0.00 | 87 | 1023.3 |
| 20260901150003 | 61 | 70 | 0.0 | 1.0 | 0.00 | 0.00 | 0.00 | 87 | 1023.3 |
| 20260901145403 | 61 | 106 | 0.0 | 1.0 | 0.00 | 0.00 | 0.00 | 87 | 1023.3 |
| 20260901144503 | 60 | 0 | 0.0 | 1.0 | 0.00 | 0.00 | 0.00 | 88 | 1023.1 |
| 20260901143603 | 60 | 114 | 0.0 | 1.0 | 0.00 | 0.00 | 0.00 | 88 | 1023.2 |
| 20260901142703 | 60 | 0 | 0.0 | 0.0 | 0.00 | 0.00 | 0.00 | 88 | 1023.0 |
| 20260901141803 | 60 | 114 | 0.0 | 2.0 | 0.00 | 0.00 | 0.00 | 88 | 1023.1 |
| 20260901140903 | 60 | 114 | 0.0 | 2.0 | 0.00 | 0.00 | 0.00 | 88 | 1023.1 |
| 20260901140003 | 60 | 0 | 0.0 | 1.0 | 0.00 | 0.00 | 0.00 | 88 | 1022.9 |
| 20260901135403 | 60 | 114 | 0.0 | 1.0 | 0.00 | 0.00 | 0.00 | 87 | 1022.7 |
| 20260901134503 | 60 | 114 | 0.0 | 1.0 | 0.00 | 0.00 | 0.00 | 88 | 1022.5 |
| 20260901133603 | 60 | 0 | 0.0 | 0.0 | 0.00 | 0.00 | 0.00 | 87 | 1022.6 |
| 20260901132703 | 60 | 0 | 0.0 | 0.0 | 0.00 | 0.00 | 0.00 | 87 | 1022.7 |
| 20260901132017 | 60 | 0 | 0.0 | 0.0 | 0.00 | 0.00 | 0.00 | 87 | 1022.6 |
| 20260901130903 | 60 | 103 | 0.0 | 1.0 | 0.00 | 0.00 | 0.00 | 86 | 1022.4 |
| 20260901130003 | 60 | 3 | 0.0 | 2.0 | 0.00 | 0.00 | 0.00 | 86 | 1022.1 |
| 20260901125403 | 60 | 298 | 0.0 | 2.0 | 0.00 | 0.00 | 0.00 | 86 | 1022.2 |
| 20260901124504 | 60 | 0 | 0.0 | 0.0 | 0.00 | 0.00 | 0.00 | 86 | 1021.8 |
| 20260901123603 | 60 | 0 | 0.0 | 0.0 | 0.00 | 0.00 | 0.00 | 86 | 1021.8 |
| 20260901122703 | 60 | 298 | 0.0 | 2.0 | 0.00 | 0.00 | 0.00 | 86 | 1021.4 |
| 20260901121803 | 60 | 298 | 0.0 | 2.0 | 0.00 | 0.00 | 0.00 | 86 | 1021.3 |
| 20260901120903 | 60 | 298 | 0.0 | 2.0 | 0.00 | 0.00 | 0.00 | 86 | 1021.6 |
| 20260901120003 | 60 | 303 | 1.0 | 3.0 | 0.00 | 0.00 | 0.00 | 86 | 1021.5 |
| 20260901115403 | 60 | 313 | 0.0 | 2.0 | 0.00 | 0.00 | 0.00 | 86 | 1021.4 |
| 20260901114503 | 60 | 298 | 1.0 | 3.0 | 0.00 | 0.00 | 0.00 | 86 | 1021.5 |
| 20260901113603 | 60 | 254 | 0.0 | 2.0 | 0.00 | 0.00 | 0.00 | 87 | 1021.5 |
| 20260901112703 | 60 | 0 | 0.0 | 0.0 | 0.00 | 0.00 | 0.00 | 86 | 1021.6 |
| 20260901112016 | 60 | 207 | 0.0 | 1.0 | 0.00 | 0.00 | 0.00 | 87 | 1021.6 |
| 20260901110903 | 60 | 0 | 0.0 | 0.0 | 0.00 | 0.00 | 0.00 | 86 | 1021.9 |
| 20260901110219 | 60 | 207 | 0.0 | 2.0 | 0.00 | 0.00 | 0.00 | 86 | 1022.0 |
| 20260901105403 | 60 | 207 | 0.0 | 1.0 | 0.00 | 0.00 | 0.00 | 86 | 1022.1 |
| 20260901104503 | 60 | 182 | 0.0 | 1.0 | 0.00 | 0.00 | 0.00 | 86 | 1022.4 |
| 20260901103603 | 61 | 71 | 1.0 | 5.0 | 0.00 | 0.00 | 0.00 | 84 | 1021.9 |
| 20260901102703 | 61 | 95 | 0.0 | 2.0 | 0.00 | 0.00 | 0.00 | 84 | 1022.2 |
| 20260901101803 | 61 | 0 | 0.0 | 0.0 | 0.00 | 0.00 | 0.00 | 83 | 1022.6 |
| 20260901100903 | 62 | 0 | 0.0 | 0.0 | 0.00 | 0.00 | 0.00 | 82 | 1023.4 |
| 20260901100003 | 62 | 0 | 0.0 | 0.0 | 0.00 | 0.00 | 0.00 | 81 | 1022.9 |
| 20260901095403 | 62 | 0 | 0.0 | 0.0 | 0.00 | 0.00 | 0.00 | 80 | 1022.5 |
| 20260901094717 | 62 | 0 | 0.0 | 0.0 | 0.00 | 0.00 | 0.00 | 80 | 1022.6 |
| 20260901093603 | 62 | 0 | 0.0 | 0.0 | 0.00 | 0.00 | 0.00 | 79 | 1022.6 |
| 20260901092916 | 62 | 0 | 0.0 | 0.0 | 0.00 | 0.00 | 0.00 | 79 | 1022.5 |
| 20260901091803 | 62 | 0 | 0.0 | 0.0 | 0.00 | 0.00 | 0.00 | 79 | 1022.6 |
| 20260901090903 | 62 | 0 | 0.0 | 0.0 | 0.00 | 0.00 | 0.00 | 78 | 1022.6 |
| 20260901090003 | 62 | 0 | 0.0 | 0.0 | 0.00 | 0.00 | 0.00 | 78 | 1022.6 |
| 20260901085403 | 62 | 0 | 0.0 | 0.0 | 0.00 | 0.00 | 0.00 | 78 | 1022.6 |
| 20260901084503 | 62 | 0 | 0.0 | 0.0 | 0.00 | 0.00 | 0.00 | 77 | 1022.9 |
| 20260901083603 | 62 | 0 | 0.0 | 0.0 | 0.00 | 0.00 | 0.00 | 77 | 1022.8 |
| 20260901082703 | 61 | 0 | 0.0 | 0.0 | 0.00 | 0.00 | 0.00 | 76 | 1022.9 |
| 20260901081803 | 62 | 0 | 0.0 | 0.0 | 0.00 | 0.00 | 0.00 | 76 | 1023.1 |
| 20260901080903 | 62 | 0 | 0.0 | 0.0 | 0.00 | 0.00 | 0.00 | 75 | 1023.3 |
| 20260901080003 | 62 | 0 | 0.0 | 0.0 | 0.00 | 0.00 | 0.00 | 75 | 1023.2 |
| 20260901075403 | 62 | 0 | 0.0 | 0.0 | 0.00 | 0.00 | 0.00 | 75 | 1023.3 |
| 20260901074503 | 62 | 65 | 0.0 | 2.0 | 0.00 | 0.00 | 0.00 | 74 | 1023.2 |
| 20260901073603 | 62 | 77 | 0.0 | 3.0 | 0.00 | 0.00 | 0.00 | 74 | 1023.1 |
| 20260901072703 | 62 | 0 | 0.0 | 0.0 | 0.00 | 0.00 | 0.00 | 74 | 1023.0 |
| 20260901071803 | 62 | 0 | 0.0 | 0.0 | 0.00 | 0.00 | 0.00 | 74 | 1023.1 |
| 20260901070903 | 62 | 0 | 0.0 | 0.0 | 0.00 | 0.00 | 0.00 | 73 | 1023.1 |
| 20260901070217 | 62 | 0 | 0.0 | 0.0 | 0.00 | 0.00 | 0.00 | 72 | 1023.1 |
| 20260901065403 | 62 | 0 | 0.0 | 0.0 | 0.00 | 0.00 | 0.00 | 72 | 1023.0 |
| 20260901064503 | 62 | 0 | 0.0 | 0.0 | 0.00 | 0.00 | 0.00 | 72 | 1023.1 |
| 20260901063603 | 63 | 0 | 0.0 | 0.0 | 0.00 | 0.00 | 0.00 | 71 | 1022.9 |
| 20260901062703 | 63 | 0 | 0.0 | 0.0 | 0.00 | 0.00 | 0.00 | 70 | 1022.8 |
| 20260901061803 | 63 | 0 | 0.0 | 0.0 | 0.00 | 0.00 | 0.00 | 70 | 1022.6 |
| 20260901061117 | 63 | 71 | 0.0 | 3.0 | 0.00 | 0.00 | 0.00 | 70 | 1022.7 |
| 20260901060004 | 64 | 62 | 0.0 | 2.0 | 0.00 | 0.00 | 0.00 | 69 | 1022.6 |
| 20260901055403 | 64 | 63 | 0.0 | 2.0 | 0.00 | 0.00 | 0.00 | 69 | 1022.8 |
| 20260901054503 | 64 | 80 | 0.0 | 2.0 | 0.00 | 0.00 | 0.00 | 68 | 1022.9 |
| 20260901053819 | 64 | 74 | 1.0 | 3.0 | 0.00 | 0.00 | 0.00 | 68 | 1022.8 |
| 20260901052703 | 64 | 0 | 0.0 | 0.0 | 0.00 | 0.00 | 0.00 | 69 | 1022.8 |
| 20260901051803 | 64 | 0 | 0.0 | 0.0 | 0.00 | 0.00 | 0.00 | 69 | 1022.8 |
| 20260901050903 | 64 | 0 | 0.0 | 0.0 | 0.00 | 0.00 | 0.00 | 68 | 1022.9 |
| 20260901050003 | 65 | 0 | 0.0 | 0.0 | 0.00 | 0.00 | 0.00 | 68 | 1023.2 |
| 20260901045403 | 65 | 0 | 0.0 | 0.0 | 0.00 | 0.00 | 0.00 | 68 | 1023.3 |
| 20260901044505 | 65 | 0 | 0.0 | 0.0 | 0.00 | 0.00 | 0.00 | 67 | 1023.2 |
| 20260901043603 | 65 | 0 | 0.0 | 0.0 | 0.00 | 0.00 | 0.00 | 67 | 1023.2 |
| 20260901042703 | 66 | 0 | 0.0 | 0.0 | 0.00 | 0.00 | 0.00 | 66 | 1023.5 |
| 20260901041803 | 66 | 73 | 0.0 | 1.0 | 0.00 | 0.00 | 0.00 | 66 | 1023.5 |
| 20260901041116 | 66 | 73 | 0.0 | 1.0 | 0.00 | 0.00 | 0.00 | 66 | 1023.7 |
| 20260901040003 | 66 | 73 | 0.0 | 1.0 | 0.00 | 0.00 | 0.00 | 64 | 1023.5 |
| 20260901035403 | 66 | 73 | 0.0 | 1.0 | 0.00 | 0.00 | 0.00 | 64 | 1023.6 |
| 20260901034503 | 67 | 73 | 0.0 | 1.0 | 0.00 | 0.00 | 0.00 | 63 | 1023.7 |
| 20260901033603 | 67 | 73 | 0.0 | 1.0 | 0.00 | 0.00 | 0.00 | 63 | 1023.7 |